When you browse on this site, cookies collect data to enhance your experience and personalize the content and advertising you see.
Visit our Privacy Policy to learn more. By continuing to use the site, you agree to this use of cookies and data.

Stündliche Wetter Düsseldorf

Heute, 3 Juli, Freitag

Zeit Temperatur Niederschläge Wind Luftdruck Luftfeuchtigkeit
00:00 +15°C° 0 mm 1 m/S 758 mmHg 83%
01:00 +14°C° 0 mm 2 m/S 758 mmHg 84%
02:00 +13°C° 0 mm 3 m/S 758 mmHg 85%
03:00 +13°C° 0 mm 3 m/S 758 mmHg 86%
04:00 +13°C° 0 mm 3 m/S 759 mmHg 85%
05:00 +14°C° 0 mm 4 m/S 759 mmHg 84%
06:00 +14°C° 0 mm 3 m/S 759 mmHg 84%
07:00 +17°C° 0 mm 3 m/S 759 mmHg 80%
08:00 +18°C° 0 mm 4 m/S 759 mmHg 76%
09:00 +19°C° 0 mm 4 m/S 760 mmHg 72%
10:00 +20°C° 0.1 mm 4 m/S 759 mmHg 66%
11:00 +22°C° 0.1 mm 5 m/S 759 mmHg 61%
12:00 +23°C° 0.1 mm 5 m/S 759 mmHg 55%
13:00 +23°C° 0.1 mm 5 m/S 759 mmHg 54%
14:00 +23°C° 0.1 mm 5 m/S 759 mmHg 54%
15:00 +25°C° 0.1 mm 5 m/S 759 mmHg 53%
16:00 +23°C° 0.1 mm 4 m/S 759 mmHg 56%
17:00 +22°C° 0.1 mm 4 m/S 759 mmHg 60%
18:00 +22°C° 0.1 mm 4 m/S 759 mmHg 64%
19:00 +21°C° 0 mm 4 m/S 759 mmHg 65%
20:00 +19°C° 0 mm 4 m/S 760 mmHg 66%
21:00 +18°C° 0 mm 4 m/S 760 mmHg 67%
22:00 +18°C° 0 mm 4 m/S 760 mmHg 69%
23:00 +17°C° 0 mm 4 m/S 760 mmHg 70%

Morgen, 4 Juli, Samstag

Zeit Temperatur Niederschläge Wind Luftdruck Luftfeuchtigkeit
00:00 +15°C° 0 mm 4 m/S 760 mmHg 71%
01:00 +15°C° 0 mm 4 m/S 760 mmHg 72%
02:00 +15°C° 0 mm 4 m/S 759 mmHg 72%
03:00 +15°C° 0 mm 4 m/S 759 mmHg 72%
04:00 +15°C° 0 mm 4 m/S 759 mmHg 73%
05:00 +17°C° 0 mm 4 m/S 759 mmHg 73%
06:00 +17°C° 0 mm 4 m/S 759 mmHg 73%
07:00 +17°C° 0 mm 4 m/S 759 mmHg 74%
08:00 +17°C° 0 mm 4 m/S 759 mmHg 75%
09:00 +16°C° 0 mm 5 m/S 759 mmHg 75%
10:00 +17°C° 0 mm 5 m/S 759 mmHg 72%
11:00 +19°C° 0 mm 5 m/S 758 mmHg 69%
12:00 +20°C° 0 mm 5 m/S 758 mmHg 66%
13:00 +20°C° 0.1 mm 5 m/S 758 mmHg 68%
14:00 +20°C° 0.1 mm 5 m/S 758 mmHg 71%
15:00 +20°C° 0.1 mm 6 m/S 758 mmHg 73%
16:00 +20°C° 0.1 mm 6 m/S 758 mmHg 75%
17:00 +19°C° 0.1 mm 5 m/S 758 mmHg 78%
18:00 +19°C° 0.1 mm 5 m/S 758 mmHg 80%
19:00 +19°C° 0.1 mm 5 m/S 758 mmHg 82%
20:00 +19°C° 0.1 mm 5 m/S 758 mmHg 84%
21:00 +19°C° 0.1 mm 5 m/S 758 mmHg 86%
22:00 +19°C° 0.1 mm 5 m/S 758 mmHg 86%
23:00 +19°C° 0.1 mm 5 m/S 757 mmHg 87%

übermorgen, 5 Juli, Sonntag

Zeit Temperatur Niederschläge Wind Luftdruck Luftfeuchtigkeit
00:00 +19°C° 0.1 mm 5 m/S 757 mmHg 87%
01:00 +19°C° 0 mm 5 m/S 757 mmHg 87%
02:00 +19°C° 0 mm 5 m/S 757 mmHg 88%
03:00 +19°C° 0 mm 5 m/S 757 mmHg 88%
04:00 +19°C° 0.1 mm 5 m/S 757 mmHg 88%
05:00 +19°C° 0.1 mm 5 m/S 756 mmHg 87%
06:00 +19°C° 0.1 mm 5 m/S 756 mmHg 87%
07:00 +20°C° 0 mm 5 m/S 756 mmHg 83%
08:00 +20°C° 0 mm 6 m/S 756 mmHg 78%
09:00 +21°C° 0 mm 6 m/S 756 mmHg 74%
10:00 +21°C° 0 mm 6 m/S 756 mmHg 72%
11:00 +22°C° 0 mm 7 m/S 756 mmHg 71%
12:00 +22°C° 0 mm 7 m/S 756 mmHg 69%
13:00 +22°C° 0 mm 7 m/S 756 mmHg 70%
14:00 +22°C° 0 mm 7 m/S 756 mmHg 70%
15:00 +22°C° 0 mm 7 m/S 755 mmHg 70%
16:00 +21°C° 0.1 mm 7 m/S 755 mmHg 72%
17:00 +21°C° 0.1 mm 6 m/S 755 mmHg 75%
18:00 +21°C° 0.1 mm 6 m/S 755 mmHg 78%
19:00 +20°C° 0.1 mm 6 m/S 755 mmHg 77%
20:00 +19°C° 0.1 mm 6 m/S 755 mmHg 77%
21:00 +17°C° 0.1 mm 6 m/S 755 mmHg 77%
22:00 +16°C° 0 mm 6 m/S 755 mmHg 77%
23:00 +15°C° 0 mm 6 m/S 755 mmHg 76%

6 Juli, Montag

Zeit Temperatur Niederschläge Wind Luftdruck Luftfeuchtigkeit
00:00 +14°C° 0 mm 6 m/S 755 mmHg 76%
01:00 +14°C° 0 mm 6 m/S 755 mmHg 74%
02:00 +14°C° 0 mm 6 m/S 755 mmHg 72%
03:00 +14°C° 0 mm 5 m/S 756 mmHg 70%
04:00 +14°C° 0 mm 6 m/S 756 mmHg 67%
05:00 +14°C° 0 mm 6 m/S 756 mmHg 64%
06:00 +14°C° 0 mm 6 m/S 756 mmHg 61%
07:00 +15°C° 0.1 mm 6 m/S 757 mmHg 62%
08:00 +15°C° 0.1 mm 6 m/S 757 mmHg 62%
09:00 +15°C° 0.1 mm 6 m/S 757 mmHg 63%
10:00 +16°C° 0.1 mm 6 m/S 758 mmHg 60%
11:00 +17°C° 0.1 mm 6 m/S 758 mmHg 58%
12:00 +19°C° 0.1 mm 6 m/S 758 mmHg 55%
13:00 +19°C° 0.2 mm 6 m/S 759 mmHg 54%
14:00 +19°C° 0.2 mm 6 m/S 759 mmHg 53%
15:00 +20°C° 0.2 mm 6 m/S 759 mmHg 52%
16:00 +19°C° 0.1 mm 5 m/S 759 mmHg 55%
17:00 +17°C° 0.1 mm 5 m/S 760 mmHg 59%
18:00 +18°C° 0.1 mm 4 m/S 760 mmHg 62%
19:00 +17°C° 0 mm 4 m/S 760 mmHg 67%
20:00 +14°C° 0 mm 3 m/S 761 mmHg 71%
21:00 +14°C° 0 mm 2 m/S 761 mmHg 76%
22:00 +14°C° 0 mm 2 m/S 762 mmHg 79%
23:00 +13°C° 0 mm 2 m/S 762 mmHg 82%

7 Juli, Dienstag

Zeit Temperatur Niederschläge Wind Luftdruck Luftfeuchtigkeit
00:00 +13°C° 0 mm 2 m/S 762 mmHg 84%
01:00 +12°C° 0 mm 1 m/S 762 mmHg 85%
02:00 +12°C° 0 mm 1 m/S 762 mmHg 86%
03:00 +11°C° 0 mm 1 m/S 762 mmHg 87%
04:00 +12°C° 0 mm 1 m/S 762 mmHg 84%
05:00 +13°C° 0 mm 1 m/S 762 mmHg 80%
06:00 +14°C° 0 mm 1 m/S 762 mmHg 77%
07:00 +16°C° 0 mm 2 m/S 762 mmHg 68%
08:00 +17°C° 0 mm 2 m/S 762 mmHg 60%
09:00 +19°C° 0 mm 2 m/S 763 mmHg 51%
10:00 +20°C° 0 mm 3 m/S 762 mmHg 49%
11:00 +21°C° 0 mm 3 m/S 762 mmHg 46%
12:00 +21°C° 0 mm 3 m/S 762 mmHg 44%
13:00 +21°C° 0.1 mm 4 m/S 762 mmHg 47%
14:00 +21°C° 0.1 mm 4 m/S 762 mmHg 50%
15:00 +21°C° 0.1 mm 4 m/S 762 mmHg 54%
16:00 +20°C° 0.1 mm 4 m/S 762 mmHg 55%
17:00 +19°C° 0.1 mm 4 m/S 763 mmHg 57%
18:00 +19°C° 0.1 mm 4 m/S 763 mmHg 59%
19:00 +17°C° 0 mm 3 m/S 763 mmHg 64%
20:00 +16°C° 0 mm 3 m/S 764 mmHg 69%
21:00 +14°C° 0 mm 2 m/S 764 mmHg 74%
22:00 +13°C° 0 mm 2 m/S 764 mmHg 76%
23:00 +13°C° 0 mm 1 m/S 765 mmHg 78%

8 Juli, Mittwoch

Zeit Temperatur Niederschläge Wind Luftdruck Luftfeuchtigkeit
00:00 +12°C° 0 mm 1 m/S 765 mmHg 80%
01:00 +12°C° 0 mm 1 m/S 765 mmHg 81%
02:00 +11°C° 0 mm 1 m/S 765 mmHg 82%
03:00 +11°C° 0 mm 1 m/S 765 mmHg 83%
04:00 +12°C° 0 mm 1 m/S 765 mmHg 79%
05:00 +13°C° 0 mm 1 m/S 765 mmHg 75%
06:00 +14°C° 0 mm 1 m/S 765 mmHg 71%
07:00 +16°C° 0 mm 1 m/S 765 mmHg 63%
08:00 +18°C° 0 mm 1 m/S 765 mmHg 56%
09:00 +20°C° 0 mm 1 m/S 765 mmHg 48%
10:00 +21°C° 0 mm 1 m/S 764 mmHg 45%
11:00 +21°C° 0 mm 2 m/S 764 mmHg 42%
12:00 +23°C° 0 mm 2 m/S 764 mmHg 38%
13:00 +23°C° 0 mm 2 m/S 763 mmHg 38%
14:00 +24°C° 0 mm 2 m/S 763 mmHg 38%
15:00 +24°C° 0 mm 2 m/S 762 mmHg 37%
16:00 +24°C° 0 mm 2 m/S 762 mmHg 41%
17:00 +24°C° 0 mm 2 m/S 762 mmHg 44%
18:00 +23°C° 0 mm 1 m/S 762 mmHg 48%
19:00 +21°C° 0 mm 2 m/S 762 mmHg 51%
20:00 +19°C° 0 mm 2 m/S 762 mmHg 54%
21:00 +18°C° 0 mm 2 m/S 762 mmHg 56%
22:00 +18°C° 0 mm 2 m/S 761 mmHg 58%
23:00 +17°C° 0 mm 2 m/S 761 mmHg 60%
Mehr zeigen